This is the latest recevied weather packets stored in our database for station/object K1PM-WX. If no packets are shown the sender has not sent any weather packets the latest 1 day(s).
| Time | Temp. | Humidity | Pressure | Rain* | Wind** | Luminosity | Snow |
|---|---|---|---|---|---|---|---|
| 1777989836 | 16.67° C | 73% | 1026 hPa | 0 mm | 6.71 m/s, 248° | - | - |
| 1777989537 | 16.67° C | 73% | 1026 hPa | 0 mm | 6.26 m/s, 270° | - | - |
| 1777989237 | 16.11° C | 73% | 1026 hPa | 0 mm | 6.71 m/s, 225° | - | - |
| 1777988936 | 16.11° C | 73% | 1026 hPa | 0 mm | 5.36 m/s, 270° | - | - |
| 1777988636 | 16.11° C | 73% | 1026 hPa | 0 mm | 6.71 m/s, 225° | - | - |
| 1777988337 | 16.11° C | 73% | 1026 hPa | 0 mm | 7.15 m/s, 248° | - | - |
| 1777988037 | 16.11° C | 73% | 1026 hPa | 0 mm | 3.58 m/s, 225° | - | - |
| 1777987736 | 16.11° C | 73% | 1026 hPa | 0 mm | 8.49 m/s, 248° | - | - |
| 1777987436 | 16.11° C | 72% | 1026 hPa | 0 mm | 3.58 m/s, 270° | - | - |
| 1777987136 | 16.11° C | 72% | 1026 hPa | 0 mm | 4.47 m/s, 225° | - | - |
| 1777986836 | 16.11° C | 71% | 1026 hPa | 0 mm | 4.47 m/s, 270° | - | - |
| 1777986536 | 16.67° C | 69% | 1026 hPa | 0 mm | 4.47 m/s, 248° | - | - |
| 1777986237 | 17.22° C | 67% | 1026 hPa | 0 mm | 4.02 m/s, 270° | - | - |
| 1777985937 | 19.44° C | 64% | 1025 hPa | 0 mm | 8.49 m/s, 270° | - | - |
| 1777985636 | 20° C | 64% | 1025 hPa | 0 mm | 6.26 m/s, 225° | - | - |
| 1777985337 | 20° C | 64% | 1025 hPa | 0 mm | 7.15 m/s, 180° | - | - |
| 1777985036 | 20° C | 64% | 1025 hPa | 0 mm | 6.71 m/s, 248° | - | - |
| 1777984736 | 20° C | 65% | 1025 hPa | 0 mm | 3.13 m/s, 203° | - | - |
| 1777984438 | 20° C | 65% | 1025 hPa | 0 mm | 4.02 m/s, 225° | - | - |
| 1777984136 | 20° C | 65% | 1025 hPa | 0 mm | 5.81 m/s, 225° | - | - |
| 1777983836 | 20° C | 65% | 1025 hPa | 0 mm | 8.05 m/s, 225° | - | - |
| 1777983537 | 20° C | 65% | 1025 hPa | 0 mm | 5.81 m/s, 248° | - | - |
| 1777983236 | 20° C | 65% | 1025 hPa | 0 mm | 4.47 m/s, 225° | - | - |
| 1777982937 | 19.44° C | 66% | 1024 hPa | 0 mm | 4.02 m/s, 225° | - | - |
| 1777982640 | 19.44° C | 66% | 1024 hPa | 0 mm | 5.36 m/s, 225° | - | - |
* Rain latest hour (hover to see other rain measurements)
** Current wind speed in m/s (hover to see current wind gust speed)